This demonstration page uses our WeatherBlox Daily Observations layout. Learn more.

Left ArrowRight Arrow

Hourly Observations for January 24, 2019

Temp ( °F °C ) Dew Point ( °F °C ) Humidity (%) Winds ( mph kmh ) Pressure ( in mb ) Visibility ( mi km ) Precip ( " mm )
12:51 am 00:51 Clear 32 undefined 18 -7.8 56 56 E 7 11 30.11 1020 10 16 N/A
1:51 am 01:51 Clear 30 -1.1 17 -8.3 58 58 ENE 6 9 30.11 1020 10 16 N/A
2:51 am 02:51 Clear 29 -1.7 17 -8.3 61 61 N N/A 30.11 1020 10 16 N/A
3:51 am 03:51 Clear 27 -2.8 17 -8.3 66 66 SE 3 6 30.12 1020 10 16 N/A
4:51 am 04:51 Clear 27 -2.8 17 -8.3 66 66 VRB 3 6 30.11 1020 10 16 N/A
5:51 am 05:51 Clear 26 -3.3 17 -8.3 69 69 E 6 9 30.13 1020 10 16 N/A
6:51 am 06:51 Clear 24 -4.4 17 -8.3 75 75 ESE 6 9 30.17 1022 10 16 N/A
7:51 am 07:51 Sunny 29 -1.7 18 -7.8 63 63 E 6 9 30.19 1022 10 16 N/A
8:51 am 08:51 Sunny 38 3.3 19 -7.2 46 46 E 6 9 30.20 1023 10 16 N/A
9:51 am 09:51 Sunny 42 5.6 18 -7.8 38 38 ESE 6 9 30.22 1023 10 16 N/A
10:51 am 10:51 Sunny 47 8.3 19 -7.2 33 33 N N/A 30.21 1023 10 16 N/A
11:51 am 11:51 Sunny 51 10.6 18 -7.8 27 27 N N/A 30.19 1022 10 16 N/A
12:51 pm 12:51 Sunny 55 12.8 17 -8.3 22 22 NW 6 9 30.14 1021 10 16 N/A
1:51 pm 13:51 Sunny 58 14.4 16 -8.9 19 19 N N/A 30.11 1020 10 16 N/A
2:51 pm 14:51 Sunny 60 15.6 16 -8.9 18 18 VRB 5 7 30.08 1019 10 16 N/A
3:51 pm 15:51 Sunny 62 16.7 16 -8.9 17 17 N N/A 30.08 1019 10 16 N/A
4:51 pm 16:51 Sunny 60 15.6 13 -10.6 16 16 WSW 3 6 30.09 1019 10 16 N/A
5:51 pm 17:51 Clear 54 12.2 17 -8.3 23 23 N 6 9 30.11 1020 10 16 N/A
6:51 pm 18:51 Clear 45 7.2 19 -7.2 35 35 N 7 11 30.15 1021 10 16 N/A
7:51 pm 19:51 Clear 43 6.1 18 -7.8 37 37 S 5 7 30.16 1022 10 16 N/A
8:51 pm 20:51 Clear 41 5 18 -7.8 39 39 E 5 7 30.14 1021 10 16 N/A
9:51 pm 21:51 Clear 39 3.9 19 -7.2 45 45 SSE 5 7 30.14 1021 10 16 N/A
10:51 pm 22:51 Clear 38 3.3 20 -6.7 48 48 SSE 6 9 30.14 1021 10 16 N/A
11:51 pm 23:51 Clear 35 1.7 19 -7.2 52 52 N N/A 30.16 1021 10 16 N/A

Powered by AerisWeather